Regional Weather Roundup
Issued by NWS

Home | Current Version | Previous Version | Graphics & Text | Print | Product List | Glossary Off
Versions: 1 2 3 4 5 6 7 8 9 10 11 12 13 14 15 16 17 18 19 20 21 22 23 24 25 26 27 28 29 30 31 32 33 34 35 36 37 38 39 40 41 42 43 44 45 46 47 48 49 50

875
ASUS43 KTOP 022308
RWRKS

WEATHER ROUNDUP FOR KANSAS
NATIONAL WEATHER SERVICE GOODLAND KS
500 PM CST FRI DEC 02 2016

NOTE:  "FAIR" INDICATES FEW OR NO CLOUDS BELOW 12,000 FEET WITH NO
SIGNIFICANT WEATHER AND/OR OBSTRUCTIONS TO VISIBILITY.

KSZ001>006-013>018-027>032-041>047-030000-
NORTHWEST KANSAS

CITY           SKY/WX    TMP DP  RH WIND       PRES   REMARKS
GOODLAND       CLOUDY    39  14  36 NE5       30.20F
HAYS           CLEAR     42  21  43 NE7       30.25S
HILL CITY      CLOUDY    42  21  43 E3        30.25S
RUSSELL        CLEAR     41  20  43 NE9       30.24S
$$

KSZ061>065-074>080-084>089-030000-
SOUTHWEST KANSAS

CITY           SKY/WX    TMP DP  RH WIND       PRES   REMARKS
DODGE CITY     MOCLDY    46  13  26 NE7       30.19F
ELKHART          N/A     43  12  28 NE9         N/A
GARDEN CITY    CLOUDY    44  11  26 E7        30.19R
GREAT BEND     CLEAR     45  21  38 NE9       30.24R
LIBERAL        CLOUDY    46  12  25 E12       30.16F
PRATT          CLEAR     44  19  36 E7        30.21F
$$

KSZ066>073-081>083-090>101-030000-
SOUTHEAST KANSAS

CITY           SKY/WX    TMP DP  RH WIND       PRES   REMARKS
CHANUTE        CLEAR     51  24  34 NE8       30.24R
COFFEYVILLE    CLOUDY    52  30  43 NE9       30.22R
HUTCHINSON     CLEAR     48  22  35 NE7       30.24R
MEDICINE LODGE   N/A     46  22  38 NE8       30.20S
NEWTON         CLEAR     47  21  35 NE6       30.24R
PARSONS        CLEAR     51  25  36 NE5       30.23F
WICHITA INTL   PTCLDY    50  20  30 NE10      30.22S
WICHITA JABRA  CLEAR     48  22  35 NE7       30.23R
WICHITA MCCONL CLEAR     50  21  32 NE8       30.22S
WINFIELD       CLEAR     53  21  28 NE8       30.22R
$$

KSZ007>012-019>026-033>040-048>060-102>105-030000-
NORTHEAST KANSAS

CITY           SKY/WX    TMP DP  RH WIND       PRES   REMARKS
CONCORDIA      CLEAR     42  25  50 NE3       30.27F
EMPORIA        CLEAR     45  23  42 E7        30.25S
LAWRENCE       CLEAR     46  28  49 N3        30.28R
MANHATTAN      CLEAR     45  26  47 NE3       30.27S
MARYSVILLE     CLEAR     39  28  65 N7        30.29S
OLATHE IND     CLEAR     39  28  64 N7        30.28R
OLATHE EXE     CLEAR     45  24  43 NE6       30.28R
SALINA         CLEAR     47  24  40 CALM      30.27R
TOPEKA BILLARD CLEAR     44  26  49 NE6       30.28S
TOPEKA FORBES  CLEAR     47  27  45 NE5       30.28S
$$




USA.gov is the U.S. government's official web portal to all federal, state and local government web resources and services.